Weather observations for the past three days for
Manhattan, Manhattan Municipal Airport
Imperial (Metric)
Date Time (cdt) Wind (mph) Vis. (mi.) Weather Sky Cond. Temperature (ºF) Relative Humidity Wind Chill (°F) Heat Index (°F) Pressure Precipitation (in)
Air Dwpt 6 hour altimeter (in) sea level (mb) 1 hr 3 hr 6 hr
Max. Min.
12 23:52 S 12 10.00 A Few Clouds FEW100 81 64.9 58% 83 29.84 1009.2
12 22:52 S 9 G 21 10.00 Fair CLR 82 64.9 56% 84 29.82 1008.7
12 21:52 S 10 10.00 Fair CLR 82.9 66 57% 85 29.8 1007.9
12 20:52 S 10 10.00 Fair CLR 84.9 66 53% 87 29.79 1007.4
12 19:52 S 10 10.00 Fair CLR 88 66.9 50% 91 29.8 1007.9
12 18:52 S 10 G 23 10.00 Fair CLR 90 66.9 93 88 47% 93 29.8 1008.3
12 17:52 S 17 G 29 10.00 Fair CLR 91.9 66 43% 95 29.8 1008.2
12 16:52 S 15 G 29 10.00 Fair CLR 93 64.9 40% 95 29.82 1008.8
12 15:52 SW 18 G 30 10.00 Fair CLR 91.9 66 43% 95 29.84 1009.5
12 14:52 SW 20 G 28 10.00 Fair CLR 91 64.9 42% 93 29.86 1010.1
12 13:52 S 16 G 28 10.00 Fair CLR 89.1 64 43% 90 29.88 1011.0
12 12:52 S 17 G 25 10.00 Fair CLR 88 64 88 64.9 45% 89 29.91 1011.7
12 11:52 SW 17 G 25 10.00 Fair CLR 86 64.9 49% 88 29.92 1012.2
12 10:52 S 14 G 24 10.00 Fair CLR 82.9 64.9 55% 85 29.94 1012.9
12 09:52 SW 13 10.00 Fair CLR 81 64 57% 83 29.95 1013.3
12 08:52 SW 13 10.00 Fair CLR 78.1 64 62% 80 29.96 1013.5
12 06:52 Calm 10.00 Fair CLR 64.9 61 69.1 61 87% 29.96 1013.4
12 05:52 Calm 10.00 Fair CLR 62.1 59 90% 29.96 1013.5
12 04:52 Calm 10.00 Fair CLR 62.1 59 90% 29.95 1013.3
12 03:52 Calm 10.00 Fair CLR 64 59 84% 29.95 1013.0
12 02:52 Calm 10.00 Fair CLR 66.9 60.1 79% 29.95 1013.1
12 01:52 Calm 10.00 Fair CLR 66.9 60.1 79% 29.96 1013.4
12 00:52 Calm 10.00 Fair CLR 66.9 61 87.1 66.9 81% 29.96 1013.5
11 23:52 SW 3 10.00 Fair CLR 71.1 61 71% 29.95 1013.3
11 22:52 Calm 10.00 Fair CLR 72 61 68% 29.95 1013.1
11 21:52 Calm 10.00 Fair CLR 73 62.1 69% 29.93 1012.5
11 20:52 S 5 10.00 Fair CLR 77 63 62% 79 29.92 1012.2
11 19:52 S 6 10.00 Fair CLR 84 62.1 48% 85 29.92 1012.1
11 18:52 S 8 10.00 Fair CLR 87.1 59 89.1 84 39% 86 29.91 1012.0
11 17:52 S 7 10.00 Fair CLR 88 59 38% 87 29.92 1012.3
11 16:52 SW 8 10.00 Fair CLR 89.1 59 36% 88 29.93 1012.7
11 15:52 SW 8 10.00 Fair CLR 88 59 38% 87 29.95 1013.2
11 14:52 SW 8 10.00 Fair CLR 86 61 43% 86 29.96 1013.7
11 13:52 SW 9 10.00 Fair CLR 84.9 60.1 43% 85 29.98 1014.2
11 12:52 SW 14 G 21 10.00 Fair CLR 84 59 84.9 62.1 43% 84 29.99 1014.5
11 11:52 SW 9 10.00 Fair CLR 82 60.1 47% 82 29.99 1014.7
11 10:52 SW 13 10.00 Fair CLR 81 59 47% 81 29.99 1014.7
11 09:52 S 6 10.00 Fair CLR 78.1 59 52% 79 29.99 1014.7
11 08:52 SW 14 10.00 Fair CLR 73.9 57.9 57% 29.98 1014.4
11 07:52 S 6 10.00 Fair CLR 68 59 73% 29.97 1014.0
11 06:52 NW 5 10.00 Fair CLR 63 55.9 64.9 59 78% 29.97 1014.1
11 05:52 Calm 10.00 Fair CLR 59 55.9 90% 29.96 1013.8
11 04:52 Calm 10.00 Fair CLR 59 55.9 90% 29.98 1014.3
11 03:52 Calm 10.00 Fair CLR 60.1 55.9 86% 29.96 1013.8
11 02:52 Calm 10.00 Fair CLR 61 55.9 84% 29.97 1014.1
11 01:52 Calm 10.00 Fair CLR 63 55.9 78% 29.98 1014.5
11 00:52 W 3 10.00 Fair CLR 64.9 55.9 82 63 73% 29.98 1014.5
10 23:52 Calm 10.00 Fair CLR 66.9 57.9 73% 29.97 1014.0
10 22:52 Calm 10.00 Fair CLR 66 59 78% 29.96 1013.6
10 21:52 Calm 10.00 Fair CLR 69.1 59 70% 29.94 1013.0
10 20:52 S 3 10.00 Fair CLR 73 59 62% 29.92 1012.3
10 19:52 SE 5 10.00 Fair CLR 80.1 55.9 44% 80 29.92 1012.5
10 18:52 S 6 10.00 Fair CLR 82 53.1 84.9 81 37% 81 29.92 1012.6
10 17:52 SE 8 10.00 Fair CLR 82.9 53.1 36% 82 29.94 1013.2
10 16:52 Calm 10.00 Fair CLR 84 53.1 34% 83 29.96 1013.8
10 15:52 Calm 10.00 Fair CLR 82.9 52 34% 82 29.99 1014.6
10 14:52 Calm 10.00 Fair CLR 82.9 51.1 33% 81 30 1015.0
10 13:52 Calm 10.00 Fair CLR 82 52 35% 81 30.02 1015.8
10 12:52 E 6 10.00 Fair CLR 81 51.1 81 57.9 35% 80 30.04 1016.3
10 11:52 Vrbl 5 10.00 Fair CLR 79 51.1 38% 79 30.05 1016.8
10 10:52 E 7 10.00 Fair CLR 77 51.1 40% 78 30.05 1017.0
10 09:52 E 8 10.00 Fair CLR 75 53.1 46% 78 30.07 1017.5
10 08:52 NE 3 10.00 Fair CLR 69.1 59 70% 30.07 1017.6
10 07:52 Calm 10.00 Fair CLR 63 59 87% 30.08 1017.8
10 06:52 Calm 10.00 Fair CLR 57.9 55.9 60.1 55.9 93% 30.08 1017.9
10 05:52 Calm 10.00 Fair CLR 57 54 90% 30.06 1017.4
10 04:52 Calm 10.00 Fair CLR 57.9 55 90% 30.05 1017.0
10 03:52 Calm 10.00 Fair CLR 57.9 55 90% 30.04 1016.7
10 02:52 Calm 10.00 Fair CLR 59 55.9 90% 30.05 1017.0
10 01:52 Calm 10.00 Fair CLR 59 55.9 90% 30.05 1016.9
10 00:52 Calm 10.00 Fair CLR 60.1 57 80.1 60.1 90% 30.05 1017.1
Date Time (cdt) Wind (mph) Vis. (mi.) Weather Sky Cond. Air Dwpt Max. Min. Relative Humidity Wind Chill (°F) Heat Index (°F) altimeter (in) sea level (mb) 1 hr 3 hr 6 hr
6 hour
Temperature (ºF) Pressure Precipitation (in)